Location: Montreal
(45.5087°N, 73.5540°W)
Time: 13:45:02
(UTC-04:00)

ISS - Visible Passes

Search period start: 27 May 2018 00:00
Search period end: 06 June 2018 00:00
Orbit: 402 x 407 km, 51.6° (Epoch: 27 May)

Date Brightness Start Highest point End Pass type
(mag) Time Alt. Az. Time Alt. Az. Time Alt. Az.
27 May -2.6 00:34:22 10° NW 00:36:54 41° NNW 00:36:54 41° NNW visible
27 May -1.7 22:05:22 10° WNW 22:08:14 27° N 22:11:06 10° ENE visible
27 May -2.4 23:42:11 10° NW 23:45:17 37° NNE 23:46:13 29° NE visible
28 May -1.0 01:18:40 10° WNW 01:18:50 11° WNW 01:18:50 11° WNW visible
28 May -1.8 21:12:54 10° WNW 21:15:51 30° N 21:18:48 10° NE visible
28 May -2.0 22:49:58 10° NW 22:52:55 30° N 22:55:35 12° ENE visible
29 May -2.2 00:26:24 10° WNW 00:28:12 30° WNW 00:28:12 30° WNW visible
29 May -1.8 21:57:39 10° WNW 22:00:32 27° N 22:03:23 10° ENE visible
29 May -3.4 23:34:12 10° WNW 23:37:26 58° NNE 23:37:36 57° NE visible
30 May -2.7 22:41:59 10° NW 22:45:07 41° NNE 22:47:02 20° E visible
31 May -1.6 00:18:30 10° WNW 00:19:40 19° W 00:19:40 19° W visible
31 May -2.2 21:49:44 10° NW 21:52:44 32° NNE 21:55:44 10° ENE visible
31 May -3.7 23:26:10 10° WNW 23:29:07 65° W 23:29:07 65° W visible
01 Jun -3.6 22:33:54 10° WNW 22:37:10 68° NNE 22:38:35 30° ESE visible
02 Jun -1.1 00:10:55 10° W 00:11:13 12° W 00:11:13 12° W visible
02 Jun -2.9 21:41:39 10° NW 21:44:50 45° NNE 21:48:00 10° E visible
02 Jun -2.7 23:18:15 10° WNW 23:20:43 31° WSW 23:20:43 31° WSW visible
03 Jun -3.7 22:25:49 10° WNW 22:29:04 60° SSW 22:30:14 34° SSE visible
04 Jun -3.8 21:33:30 10° WNW 21:36:47 81° NNE 21:39:47 12° ESE visible
04 Jun -1.6 23:10:46 10° W 23:12:25 16° SW 23:12:25 16° SW visible
05 Jun -2.5 22:17:54 10° W 22:20:46 28° SW 22:22:00 21° S visible
